TimePDT,TemperatureF,Dew PointF,Humidity,Sea Level PressureIn,VisibilityMPH,Wind Direction,Wind SpeedMPH,Gust SpeedMPH,PrecipitationIn,Events,Conditions,WindDirDegrees,DateUTC
12:15 AM,64.4,57.2,77,29.82,-9999.0,Calm,Calm,-,N/A,,Unknown,0,2013-08-19 07:15:00
12:35 AM,62.6,55.4,77,29.81,-9999.0,NNW,3.5,-,N/A,,Unknown,330,2013-08-19 07:35:00
12:55 AM,62.6,55.4,77,29.81,-9999.0,Calm,Calm,-,N/A,,Unknown,0,2013-08-19 07:55:00
1:15 AM,64.4,55.4,73,29.81,-9999.0,Calm,Calm,-,N/A,,Unknown,0,2013-08-19 08:15:00
1:35 AM,62.6,57.2,82,29.82,-9999.0,East,3.5,-,N/A,,Unknown,100,2013-08-19 08:35:00
1:55 AM,60.8,55.4,82,29.81,-9999.0,NNW,3.5,-,N/A,,Unknown,340,2013-08-19 08:55:00
2:15 AM,59.0,55.4,88,29.81,10.0,WNW,3.5,-,N/A,,Unknown,290,2013-08-19 09:15:00
2:35 AM,62.6,55.4,77,29.81,-9999.0,Calm,Calm,-,N/A,,Unknown,0,2013-08-19 09:35:00
2:55 AM,60.8,57.2,88,29.80,10.0,NNE,3.5,-,N/A,,Unknown,20,2013-08-19 09:55:00
3:15 AM,62.6,57.2,82,29.81,10.0,NE,4.6,-,N/A,,Unknown,50,2013-08-19 10:15:00
3:35 AM,60.8,57.2,88,29.81,10.0,Calm,Calm,-,N/A,,Unknown,0,2013-08-19 10:35:00
3:55 AM,62.6,57.2,82,29.80,-9999.0,Calm,Calm,-,N/A,,Unknown,0,2013-08-19 10:55:00
4:15 AM,55.4,53.6,94,29.81,-9999.0,NE,8.1,-,N/A,,Unknown,40,2013-08-19 11:15:00
4:35 AM,59.0,55.4,88,29.82,10.0,SE,3.5,-,N/A,,Unknown,130,2013-08-19 11:35:00
4:55 AM,60.8,57.2,88,29.82,10.0,South,4.6,-,N/A,,Unknown,190,2013-08-19 11:55:00
5:15 AM,60.8,57.2,88,29.82,10.0,SSW,3.5,-,N/A,,Unknown,200,2013-08-19 12:15:00
5:35 AM,57.2,57.2,100,29.82,10.0,NNE,6.9,-,N/A,,Clear,20,2013-08-19 12:35:00
5:55 AM,57.2,57.2,100,29.83,10.0,Calm,Calm,-,N/A,,Clear,0,2013-08-19 12:55:00
6:15 AM,59.0,57.2,94,29.84,10.0,Calm,Calm,-,N/A,,Clear,0,2013-08-19 13:15:00
6:35 AM,59.0,57.2,94,29.84,9.0,South,3.5,-,N/A,,Clear,180,2013-08-19 13:35:00
6:55 AM,55.4,55.4,100,29.85,9.0,Calm,Calm,-,N/A,,Clear,0,2013-08-19 13:55:00
7:15 AM,57.2,57.2,100,29.86,8.0,Calm,Calm,-,N/A,,Clear,0,2013-08-19 14:15:00
7:35 AM,60.8,57.2,88,29.86,8.0,Calm,Calm,-,N/A,,Clear,0,2013-08-19 14:35:00
7:55 AM,62.6,57.2,82,29.87,-9999.0,Calm,Calm,-,N/A,,Clear,0,2013-08-19 14:55:00
8:15 AM,64.4,57.2,77,29.88,-9999.0,Calm,Calm,-,N/A,,Clear,0,2013-08-19 15:15:00
8:35 AM,64.4,59.0,83,29.88,-9999.0,Calm,Calm,-,N/A,,Clear,0,2013-08-19 15:35:00
8:55 AM,66.2,59.0,78,29.88,-9999.0,Calm,Calm,-,N/A,,Clear,0,2013-08-19 15:55:00
9:15 AM,68.0,59.0,73,29.88,-9999.0,Calm,Calm,-,N/A,,Clear,0,2013-08-19 16:15:00
9:35 AM,71.6,60.8,69,29.88,-9999.0,Calm,Calm,-,N/A,,Clear,0,2013-08-19 16:35:00
9:55 AM,73.4,60.8,65,29.89,-9999.0,SE,3.5,-,N/A,,Clear,140,2013-08-19 16:55:00
10:15 AM,75.2,62.6,65,29.89,-9999.0,Calm,Calm,-,N/A,,Clear,0,2013-08-19 17:15:00
10:35 AM,75.2,62.6,65,29.89,-9999.0,SE,3.5,-,N/A,,Clear,140,2013-08-19 17:35:00
10:55 AM,75.2,62.6,65,29.90,-9999.0,SE,4.6,-,N/A,,Partly Cloudy,130,2013-08-19 17:55:00
11:15 AM,75.2,64.4,69,29.90,-9999.0,SE,5.8,-,N/A,,Clear,130,2013-08-19 18:15:00
11:35 AM,75.2,62.6,65,29.90,-9999.0,East,5.8,-,N/A,,Clear,100,2013-08-19 18:35:00
11:55 AM,75.2,60.8,61,29.90,-9999.0,ESE,3.5,-,N/A,,Clear,110,2013-08-19 18:55:00
12:15 PM,80.6,60.8,51,29.89,-9999.0,NE,3.5,-,N/A,,Clear,50,2013-08-19 19:15:00
12:35 PM,82.4,60.8,48,29.88,-9999.0,NE,5.8,-,N/A,,Clear,50,2013-08-19 19:35:00
12:55 PM,84.2,62.6,48,29.87,-9999.0,NNE,3.5,-,N/A,Rain,Light Rain,30,2013-08-19 19:55:00
1:15 PM,86.0,62.6,45,29.87,-9999.0,NNE,5.8,-,N/A,,Clear,20,2013-08-19 20:15:00
1:35 PM,87.8,59.0,38,29.86,-9999.0,NNE,10.4,-,N/A,,Clear,20,2013-08-19 20:35:00
1:55 PM,89.6,59.0,36,29.86,-9999.0,NNE,12.7,18.4,N/A,,Clear,30,2013-08-19 20:55:00
2:15 PM,89.6,59.0,36,29.86,-9999.0,NNE,15.0,-,N/A,,Clear,20,2013-08-19 21:15:00
2:35 PM,89.6,57.2,33,29.85,-9999.0,North,17.3,-,N/A,,Clear,350,2013-08-19 21:35:00
2:55 PM,91.4,57.2,31,29.85,-9999.0,NNW,16.1,23.0,N/A,,Clear,340,2013-08-19 21:55:00
3:15 PM,89.6,55.4,31,29.85,-9999.0,NNW,17.3,21.9,N/A,,Clear,340,2013-08-19 22:15:00
3:35 PM,91.4,55.4,29,29.84,-9999.0,NW,12.7,-,N/A,,Clear,320,2013-08-19 22:35:00
3:55 PM,91.4,55.4,29,29.83,-9999.0,NNW,15.0,-,N/A,,Clear,340,2013-08-19 22:55:00
4:15 PM,91.4,55.4,29,29.83,-9999.0,North,16.1,-,N/A,,Clear,360,2013-08-19 23:15:00
4:35 PM,87.8,57.2,35,29.83,-9999.0,NNW,17.3,-,N/A,,Clear,340,2013-08-19 23:35:00
4:55 PM,87.8,55.4,33,29.83,-9999.0,NNW,16.1,-,N/A,,Clear,340,2013-08-19 23:55:00
5:15 PM,86.0,55.4,35,29.82,-9999.0,North,12.7,-,N/A,,Clear,350,2013-08-20 00:15:00
5:35 PM,87.8,53.6,31,29.82,-9999.0,NNW,8.1,-,N/A,,Clear,340,2013-08-20 00:35:00
5:55 PM,87.8,53.6,31,29.82,-9999.0,North,10.4,-,N/A,,Clear,350,2013-08-20 00:55:00
6:15 PM,86.0,53.6,33,29.81,-9999.0,NW,3.5,-,N/A,,Clear,310,2013-08-20 01:15:00
6:35 PM,84.2,55.4,37,29.81,-9999.0,NNE,8.1,-,N/A,,Clear,30,2013-08-20 01:35:00
6:55 PM,80.6,55.4,42,29.82,-9999.0,NNE,8.1,-,N/A,,Clear,20,2013-08-20 01:55:00
7:15 PM,78.8,55.4,44,29.82,-9999.0,North,6.9,-,N/A,,Clear,360,2013-08-20 02:15:00
7:35 PM,77.0,55.4,47,29.82,-9999.0,North,9.2,-,N/A,,Clear,350,2013-08-20 02:35:00
7:55 PM,73.4,57.2,57,29.82,-9999.0,North,12.7,-,N/A,,Clear,350,2013-08-20 02:55:00
8:15 PM,71.6,55.4,57,29.83,-9999.0,North,12.7,-,N/A,,Clear,360,2013-08-20 03:15:00
8:35 PM,68.0,55.4,64,29.83,-9999.0,North,13.8,17.3,N/A,,Clear,360,2013-08-20 03:35:00
8:55 PM,66.2,57.2,73,29.85,-9999.0,North,13.8,21.9,N/A,,Clear,10,2013-08-20 03:55:00
9:15 PM,62.6,57.2,82,29.86,-9999.0,North,13.8,-,N/A,,Clear,360,2013-08-20 04:15:00
9:35 PM,60.8,59.0,94,29.87,10.0,North,15.0,-,N/A,,Unknown,350,2013-08-20 04:35:00
9:55 PM,60.8,59.0,94,29.88,10.0,North,15.0,-,N/A,,Unknown,350,2013-08-20 04:55:00
10:15 PM,59.0,59.0,100,29.88,10.0,North,12.7,-,N/A,,Unknown,350,2013-08-20 05:15:00
10:35 PM,59.0,59.0,100,29.89,10.0,NNW,13.8,-,N/A,,Unknown,340,2013-08-20 05:35:00
10:55 PM,59.0,59.0,100,29.88,10.0,North,11.5,-,N/A,,Unknown,360,2013-08-20 05:55:00
11:15 PM,59.0,59.0,100,29.88,10.0,North,12.7,-,N/A,,Unknown,350,2013-08-20 06:15:00
11:35 PM,59.0,59.0,100,29.88,10.0,NNW,10.4,-,N/A,,Unknown,340,2013-08-20 06:35:00
11:55 PM,59.0,59.0,100,29.90,10.0,North,4.6,-,N/A,,Unknown,350,2013-08-20 06:55:00